Location: Unspecified
(47.4992°N, 121.7766°W)
Time: 14:37:41
(UTC-07:00)

Okean 3 - Pass Details

Date: 10 August 2024
Orbit: 557 x 581 km, 82.5° (Epoch: 08 September)

Event Time Altitude Azimuth Distance (km) Brightness Sun altitude
Rises 02:49:42 0° 349° (NNW) 2,757 7.7 -23.5°
Reaches altitude 10° 02:51:53 10° 348° (NNW) 1,855 6.7 -23.3°
Enters shadow 02:55:41 71° 302° (WNW) 594 3.3 -23.0°
